Content
SEND FEEDBACK

Daily
Averages
Monthly
Summary
United States of America

PALACIOS, TEXAS


Home > North America > United States > Texas
Elevation: 2 feet     Latitude: 28 43N     Longitude: 096 15W

WEATHER
 
SELECT A DAY
Number of Records: 199,197;   Date Range: 1/1/95 - 10/23/14
 
SHARE

PRINT THIS DATA

[ ← Previous Day ]
WEATHER ALMANAC - JANUARY 23, 2013
[ Next Day → ]
[ °C ]   °F
Weather ElementAverageHighLow
Temperature58.9 °F75 °F (12:53 pm)51.1 °F (2:53 am)
Dewpoint54.4 °F62.1 °F (9:53 pm)48.2 °F (5:43 am)
Humidity86.5 %100 % (1:48 am)55 % (2:53 pm)
Barometer30.28 in30.35 in (10:53 am)30.25 in (3:53 pm)
Wind Speed6.9 mph15 mph (3:53 pm)
Wind Gust19.6 mph (11:53 am)
Weather ElementAverage
Visibility4.6 mi
Wind DirectionESE (106.1 °)

Weather ElementTotal
Precipitation---
Heating Degree Days2 (Base 65)
Growing Degree Days13.1 (Base 50)
Averaged from 41 records on January 23, 2013
WEATHER CONDITIONS BREAKOUT
WIND DIRECTION BREAKOUT
WEATHER BY HOUR - JANUARY 23, 2013
[ °C ]   °F
Local TimeTemperatureDewpointHumidityBarometerVisibilityWind DirectionWind SpeedGust SpeedPrecipitationEventsConditions
12:21 AM55.4 °F53.6 °F94 %30.28 in0.8 miENE (70°)5.8 mphMist
12:53 AM55.9 °F54.0 °F93 %30.28 in0.2 miENE (60°)5.8 mphFogFog
1:48 AM53.6 °F53.6 °F100 %30.28 in1.5 miENE (70°)5.8 mphMostly Cloudy
1:53 AM53.1 °F52.0 °F96 %30.28 in2.0 miENE (70°)5.8 mphMostly Cloudy
2:03 AM53.6 °F51.8 °F94 %30.28 in2.0 miENE (70°)4.6 mphScattered Clouds
2:10 AM51.8 °F51.8 °F100 %30.28 in1.0 miENE (60°)5.8 mphMist
2:17 AM51.8 °F50.0 °F94 %30.28 in0.5 miENE (60°)5.8 mphFogFog
2:35 AM51.8 °F50.0 °F94 %30.28 in1.2 miENE (70°)5.8 mphScattered Clouds
2:53 AM51.1 °F50.0 °F96 %30.27 in1.2 miENE (70°)6.9 mphClear
3:06 AM51.8 °F50.0 °F94 %30.27 in0.8 miENE (70°)6.9 mphClear
3:13 AM51.8 °F50.0 °F94 %30.27 in1.2 miENE (70°)6.9 mphClear
3:26 AM51.8 °F50.0 °F94 %30.27 in2.5 miENE (70°)5.8 mphClear
3:53 AM53.1 °F52.0 °F96 %30.27 in3.0 miEast (90°)5.8 mphClear
4:53 AM52.0 °F50.0 °F93 %30.26 in3.0 miEast (80°)5.8 mphClear
5:36 AM51.8 °F50.0 °F94 %30.27 in1.8 miENE (70°)4.6 mphClear
5:43 AM51.8 °F48.2 °F88 %30.27 in0.5 miENE (60°)5.8 mphFogFog
5:53 AM51.1 °F48.9 °F92 %30.27 in0.5 miENE (70°)5.8 mphFogFog
6:02 AM51.8 °F50.0 °F94 %30.27 in1.2 miEast (80°)4.6 mphPartly Cloudy
6:25 AM51.8 °F48.2 °F88 %30.28 in0.8 miEast (80°)4.6 mphClear
6:37 AM51.8 °F48.2 °F88 %30.28 in1.5 miEast (80°)5.8 mphClear
6:53 AM51.1 °F48.9 °F92 %30.29 in1.8 miEast (80°)5.8 mphClear
7:10 AM51.8 °F48.2 °F88 %30.29 in0.8 miENE (70°)5.8 mphClear
7:44 AM51.8 °F50.0 °F94 %30.30 in1.2 miEast (80°)4.6 mphMostly Cloudy
7:53 AM54.0 °F52.0 °F93 %30.31 in2.0 miENE (60°)3.5 mphMostly Cloudy
8:17 AM57.2 °F55.4 °F94 %30.31 in3.0 miENE (70°)4.6 mphOvercast
8:53 AM62.6 °F59.0 °F88 %30.32 in7.0 miEast (100°)5.8 mphMostly Cloudy
9:53 AM68.0 °F61.0 °F78 %30.34 in10.0 miSE (130°)5.8 mphClear
10:53 AM73.0 °F60.1 °F64 %30.35 in10.0 miSSE (160°)10.4 mphScattered Clouds
11:53 AM73.0 °F59.0 °F61 %30.33 in10.0 miSouth (170°)9.2 mph19.6 mphScattered Clouds
12:53 PM75.0 °F60.1 °F60 %30.30 in10.0 miSSW (200°)11.5 mphClear
1:53 PM73.9 °F60.1 °F62 %30.28 in10.0 miSSW (200°)10.4 mphClear
2:53 PM75.0 °F57.9 °F55 %30.26 in10.0 miSouth (170°)12.7 mphClear
3:53 PM73.0 °F60.1 °F64 %30.25 in10.0 miSouth (170°)15.0 mphClear
4:53 PM72.0 °F60.1 °F66 %30.25 in10.0 miSouth (170°)9.2 mphClear
5:53 PM68.0 °F60.1 °F76 %30.25 in10.0 miSSE (160°)6.9 mphClear
6:53 PM64.0 °F60.1 °F87 %30.25 in10.0 miSE (140°)6.9 mphClear
7:53 PM64.0 °F61.0 °F90 %30.25 in10.0 miSSE (150°)8.1 mphClear
8:53 PM64.9 °F61.0 °F87 %30.25 in10.0 miSSE (150°)9.2 mphClear
9:53 PM64.9 °F62.1 °F90 %30.26 in10.0 miSSE (160°)9.2 mphClear
10:53 PM64.0 °F61.0 °F90 %30.26 in9.0 miSSE (160°)6.9 mphClear
11:53 PM63.0 °F60.1 °F90 %30.26 in8.0 miSouth (180°)6.9 mphClear
Hourly data recorded from KPSX, located miles away from Palacios, Texas







STORIES FROM OUR PARTNERS